This demonstration page uses our WeatherBlox Daily Observations layout. Learn more.

Left ArrowRight Arrow

39.92423, -83.80882

Hourly Observations for March 10, 2017

Temp ( °F °C ) Dew Point ( °F °C ) Humidity (%) Winds ( mph kmh ) Pressure ( in mb ) Visibility ( mi km ) Precip ( " mm )
12:27 am 00:27 Cloudy with Light Rain 37 3 34 1 87 87 NE 9 15 30.03 1017 10 16.0934 0.01 0.254
12:56 am 00:56 Cloudy with Light Rain 36 2.2 34 1.1 93 93 NE 8 13 30.01 1016 10 16.0934 0.02 0.508
1:23 am 01:23 Cloudy with Light Rain 36 2 34 1 93 93 NE 10 17 30 1016 10 16.0934 0 0.0254
1:56 am 01:56 Cloudy 36 2.2 34 1.1 93 93 N 8 13 29.99 1016 10 16.0934 0 0.0254
2:15 am 02:15 Cloudy with Light Rain 36 2 34 1 93 93 N 10 17 30.03 1017 10 16.0934 0 0.0254
2:56 am 02:56 Cloudy with Light Rain 35 1.7 34 1.1 96 96 N 12 19 30.01 1016 10 16.0934 0 0.0254
3:56 am 03:56 Cloudy with Light Snow 33 0.6 31 -0.6 92 92 NNW 14 22 30.06 1018 6 9.65604 0.01 0.254
4:01 am 04:01 Cloudy with Light Snow 34 1 30 -1 87 87 NNW 16 26 30.09 1019 8 12.87472 0 0.0254
4:52 am 04:52 Cloudy with Light Snow 34 1 28 -2 81 81 N 17 28 30.12 1020 9 14.48406 0 0.0254
4:56 am 04:56 Cloudy with Light Snow 33 0.6 29 -1.7 85 85 N 16 26 30.09 1019 8 12.87472 0 0.0254
5:49 am 05:49 Cloudy 32 0 27 -3 80 80 NNW 16 26 30.15 1021 10 16.0934 0 0.0254
5:56 am 05:56 Cloudy 31 -0.6 27 -2.8 85 85 NNW 14 22 30.12 1020 10 16.0934 0 0.0254
6:56 am 06:56 Cloudy 31 -0.6 22 -5.6 69 69 NNW 20 31 30.15 1021 10 16.0934 0 0
7:56 am 07:56 Mostly Sunny 31 -0.6 22 -5.6 69 69 NNW 13 20 30.19 1022 10 16.0934 0 0
8:56 am 08:56 Sunny 32 0 20 -6.7 61 61 NNW 18 30 30.21 1023 10 16.0934 0 0
9:56 am 09:56 Sunny 34 1.1 18 -7.8 52 52 NNW 17 28 30.23 1024 10 16.0934 0 0
10:56 am 10:56 Mostly Cloudy 35 1.7 18 -7.8 50 50 NW 17 28 30.26 1025 10 16.0934 0 0
11:56 am 11:56 Partly Cloudy 36 2.2 19 -7.2 50 50 WNW 15 24 30.27 1025 10 16.0934 0 0
12:56 pm 12:56 Mostly Cloudy 36 2.2 18 -7.8 48 48 WNW 22 35 30.27 1025 10 16.0934 0 0
1:56 pm 13:56 Mostly Cloudy 35 1.7 15 -9.4 44 44 NW 18 30 30.25 1025 10 16.0934 0 0
2:56 pm 14:56 Mostly Cloudy 37 2.8 18 -7.8 46 46 WNW 24 39 30.26 1025 10 16.0934 0 0
3:56 pm 15:56 Mostly Cloudy 36 2.2 14 -10 40 40 WNW 23 37 30.27 1025 10 16.0934 0 0
4:56 pm 16:56 Sunny 34 1.1 12 -11.1 40 40 NW 21 33 30.29 1026 10 16.0934 0 0
5:56 pm 17:56 Sunny 33 0.6 10 -12.2 38 38 NW 21 33 30.3 1026 10 16.0934 0 0
6:56 pm 18:56 Clear 30 -1.1 12 -11.1 47 47 NW 18 30 30.33 1027 10 16.0934 0 0
7:56 pm 19:56 Clear 27 -2.8 13 -10.6 55 55 NW 14 22 30.35 1028 10 16.0934 0 0
8:56 pm 20:56 Clear 25 -3.9 12 -11.1 58 58 NW 17 28 30.36 1028 10 16.0934 0 0
9:56 pm 21:56 Clear 23 -5 9 -12.8 55 55 NW 12 19 30.35 1028 10 16.0934 0 0
10:56 pm 22:56 Clear 22 -5.6 10 -12.2 60 60 NNW 10 17 30.35 1028 10 16.0934 0 0
11:56 pm 23:56 Clear 21 -6.1 10 -12.2 62 62 NNW 10 17 30.37 1028 10 16.0934 0 0

Powered by AerisWeather